Time,TemperatureF,DewpointF,PressureIn,WindDirection,WindDirectionDegrees,WindSpeedMPH,WindSpeedGustMPH,Humidity,HourlyPrecipIn,Conditions,Clouds,dailyrainin,SoftwareType,DateUTC
2017-03-24 00:03:00,49.7,44.1,29.99,South,187,9.0,9.0,81,0.00,,,0.00,Wunderground v.1.15,2017-03-24 05:03:00,
2017-03-24 00:09:00,49.6,44.0,29.99,South,171,8.0,13.0,81,0.00,,,0.00,Wunderground v.1.15,2017-03-24 05:09:00,
2017-03-24 00:14:00,49.7,44.4,29.99,South,175,8.0,17.0,82,0.00,,,0.00,Wunderground v.1.15,2017-03-24 05:14:00,
2017-03-24 00:20:00,49.9,44.3,29.99,SSE,161,9.0,18.0,81,0.00,,,0.00,Wunderground v.1.15,2017-03-24 05:20:00,
2017-03-24 00:25:00,50.0,44.4,29.99,SE,128,10.0,13.0,81,0.00,,,0.00,Wunderground v.1.15,2017-03-24 05:25:00,
2017-03-24 00:31:00,50.0,44.4,29.98,South,176,10.0,10.0,81,0.00,,,0.00,Wunderground v.1.15,2017-03-24 05:31:00,
2017-03-24 00:36:00,49.9,44.3,29.98,SE,124,9.0,12.0,81,0.00,,,0.00,Wunderground v.1.15,2017-03-24 05:36:00,
2017-03-24 00:42:00,49.9,44.3,29.98,SSE,150,9.0,9.0,81,0.00,,,0.00,Wunderground v.1.15,2017-03-24 05:42:00,
2017-03-24 00:48:00,49.8,44.2,29.97,SE,131,10.0,15.0,81,0.00,,,0.00,Wunderground v.1.15,2017-03-24 05:48:00,
2017-03-24 00:53:00,49.7,44.1,29.97,SSE,154,10.0,13.0,81,0.00,,,0.00,Wunderground v.1.15,2017-03-24 05:53:00,
2017-03-24 00:59:00,49.7,44.1,29.97,SSE,154,9.0,14.0,81,0.00,,,0.00,Wunderground v.1.15,2017-03-24 05:59:00,
2017-03-24 01:04:00,49.7,44.4,29.97,SSE,158,10.0,16.0,82,0.00,,,0.00,Wunderground v.1.15,2017-03-24 06:04:00,
2017-03-24 01:10:00,49.8,44.5,29.96,SSE,163,9.0,16.0,82,0.00,,,0.00,Wunderground v.1.15,2017-03-24 06:10:00,
2017-03-24 01:15:00,49.9,44.3,29.97,SSE,154,10.0,11.0,81,0.00,,,0.00,Wunderground v.1.15,2017-03-24 06:15:00,
2017-03-24 01:21:00,49.9,44.3,29.97,SE,141,10.0,11.0,81,0.00,,,0.00,Wunderground v.1.15,2017-03-24 06:21:00,
2017-03-24 01:27:00,50.1,44.5,29.96,SSW,199,10.0,12.0,81,0.00,,,0.00,Wunderground v.1.15,2017-03-24 06:27:00,
2017-03-24 01:32:00,50.2,44.6,29.97,South,177,9.0,9.0,81,0.00,,,0.00,Wunderground v.1.15,2017-03-24 06:32:00,
2017-03-24 01:38:00,50.4,44.8,29.96,SSE,158,8.0,13.0,81,0.00,,,0.00,Wunderground v.1.15,2017-03-24 06:38:00,
2017-03-24 01:44:00,50.5,44.9,29.96,South,174,9.0,15.0,81,0.00,,,0.00,Wunderground v.1.15,2017-03-24 06:44:00,
2017-03-24 01:49:00,50.7,44.8,29.96,SSE,152,8.0,15.0,80,0.00,,,0.00,Wunderground v.1.15,2017-03-24 06:49:00,
2017-03-24 01:54:00,50.8,44.9,29.96,South,173,8.0,12.0,80,0.00,,,0.00,Wunderground v.1.15,2017-03-24 06:54:00,
2017-03-24 02:00:00,51.0,45.0,29.96,South,179,7.0,13.0,80,0.00,,,0.00,Wunderground v.1.15,2017-03-24 07:00:00,
2017-03-24 02:05:00,51.1,45.1,29.95,SSE,160,8.0,12.0,80,0.00,,,0.00,Wunderground v.1.15,2017-03-24 07:05:00,
2017-03-24 02:11:00,51.3,45.3,29.95,SSE,154,9.0,11.0,80,0.00,,,0.00,Wunderground v.1.15,2017-03-24 07:11:00,
2017-03-24 02:17:00,51.5,45.2,29.95,SSE,163,10.0,13.0,79,0.00,,,0.00,Wunderground v.1.15,2017-03-24 07:17:00,
2017-03-24 02:22:00,51.7,45.4,29.94,SSE,167,10.0,17.0,79,0.00,,,0.00,Wunderground v.1.15,2017-03-24 07:22:00,
2017-03-24 02:28:00,51.9,45.6,29.94,South,183,10.0,17.0,79,0.00,,,0.00,Wunderground v.1.15,2017-03-24 07:28:00,
2017-03-24 02:33:00,52.0,45.7,29.94,SSE,164,10.0,11.0,79,0.00,,,0.00,Wunderground v.1.15,2017-03-24 07:33:00,
2017-03-24 02:39:00,52.0,45.7,29.94,South,177,8.0,13.0,79,0.00,,,0.00,Wunderground v.1.15,2017-03-24 07:39:00,
2017-03-24 02:44:00,52.0,45.7,29.94,SSE,160,8.0,12.0,79,0.00,,,0.00,Wunderground v.1.15,2017-03-24 07:44:00,
2017-03-24 02:50:00,52.0,45.7,29.94,South,179,9.0,13.0,79,0.00,,,0.00,Wunderground v.1.15,2017-03-24 07:50:00,
2017-03-24 02:56:00,52.2,45.9,29.94,SSE,162,10.0,13.0,79,0.00,,,0.00,Wunderground v.1.15,2017-03-24 07:56:00,
2017-03-24 03:01:00,52.2,45.9,29.94,SSE,165,9.0,9.0,79,0.00,,,0.00,Wunderground v.1.15,2017-03-24 08:01:00,
2017-03-24 03:07:00,52.2,45.9,29.93,SSE,150,8.0,14.0,79,0.00,,,0.00,Wunderground v.1.15,2017-03-24 08:07:00,
2017-03-24 03:12:00,52.2,45.9,29.93,South,176,8.0,9.0,79,0.00,,,0.00,Wunderground v.1.15,2017-03-24 08:12:00,
2017-03-24 03:18:00,52.2,46.2,29.93,SSE,158,8.0,9.0,80,0.00,,,0.00,Wunderground v.1.15,2017-03-24 08:18:00,
2017-03-24 03:23:00,52.2,46.2,29.93,SSE,163,8.0,14.0,80,0.00,,,0.00,Wunderground v.1.15,2017-03-24 08:23:00,
2017-03-24 03:29:00,52.3,46.3,29.93,SSE,167,9.0,14.0,80,0.00,,,0.00,Wunderground v.1.15,2017-03-24 08:29:00,
2017-03-24 03:35:00,52.3,46.3,29.93,SE,136,9.0,11.0,80,0.00,,,0.00,Wunderground v.1.15,2017-03-24 08:35:00,
2017-03-24 03:41:00,52.2,46.2,29.92,South,179,9.0,9.0,80,0.00,,,0.00,Wunderground v.1.15,2017-03-24 08:41:00,
2017-03-24 03:46:00,52.2,46.5,29.93,South,181,9.0,11.0,81,0.00,,,0.00,Wunderground v.1.15,2017-03-24 08:46:00,
2017-03-24 03:52:00,52.2,46.5,29.93,SSE,160,8.0,8.0,81,0.00,,,0.00,Wunderground v.1.15,2017-03-24 08:52:00,
2017-03-24 03:57:00,52.2,46.5,29.93,SSW,200,8.0,9.0,81,0.00,,,0.00,Wunderground v.1.15,2017-03-24 08:57:00,
2017-03-24 04:03:00,52.3,46.6,29.93,SSE,156,7.0,7.0,81,0.00,,,0.00,Wunderground v.1.15,2017-03-24 09:03:00,
2017-03-24 04:08:00,52.2,46.5,29.93,SSE,165,7.0,10.0,81,0.00,,,0.00,Wunderground v.1.15,2017-03-24 09:08:00,
2017-03-24 04:14:00,52.2,46.5,29.93,South,190,7.0,8.0,81,0.00,,,0.00,Wunderground v.1.15,2017-03-24 09:14:00,
2017-03-24 04:19:00,52.2,46.5,29.93,South,171,7.0,11.0,81,0.00,,,0.00,Wunderground v.1.15,2017-03-24 09:19:00,
2017-03-24 04:25:00,52.1,46.8,29.93,SSE,165,6.0,10.0,82,0.00,,,0.00,Wunderground v.1.15,2017-03-24 09:25:00,
2017-03-24 04:31:00,52.0,46.7,29.93,SSE,160,7.0,9.0,82,0.00,,,0.00,Wunderground v.1.15,2017-03-24 09:31:00,
2017-03-24 04:36:00,51.9,46.6,29.93,South,169,8.0,10.0,82,0.00,,,0.00,Wunderground v.1.15,2017-03-24 09:36:00,
2017-03-24 04:42:00,51.9,46.9,29.94,South,175,6.0,11.0,83,0.00,,,0.00,Wunderground v.1.15,2017-03-24 09:42:00,
2017-03-24 04:47:00,51.9,46.9,29.94,South,188,6.0,11.0,83,0.00,,,0.00,Wunderground v.1.15,2017-03-24 09:47:00,
2017-03-24 04:53:00,51.9,46.9,29.94,South,191,6.0,8.0,83,0.00,,,0.00,Wunderground v.1.15,2017-03-24 09:53:00,
2017-03-24 04:58:00,51.8,46.8,29.94,South,173,6.0,8.0,83,0.00,,,0.00,Wunderground v.1.15,2017-03-24 09:58:00,
2017-03-24 05:03:00,51.8,46.8,29.94,South,169,6.0,6.0,83,0.00,,,0.00,Wunderground v.1.15,2017-03-24 10:03:00,
2017-03-24 05:09:00,51.8,47.1,29.94,SSE,158,6.0,7.0,84,0.00,,,0.00,Wunderground v.1.15,2017-03-24 10:09:00,
2017-03-24 05:14:00,51.8,47.1,29.94,South,175,6.0,7.0,84,0.00,,,0.00,Wunderground v.1.15,2017-03-24 10:14:00,
2017-03-24 05:19:00,51.8,47.1,29.94,South,176,6.0,8.0,84,0.00,,,0.00,Wunderground v.1.15,2017-03-24 10:19:00,
2017-03-24 05:25:00,51.8,47.1,29.95,SSE,168,6.0,10.0,84,0.00,,,0.00,Wunderground v.1.15,2017-03-24 10:25:00,
2017-03-24 05:30:00,51.8,47.1,29.95,South,183,6.0,10.0,84,0.00,,,0.00,Wunderground v.1.15,2017-03-24 10:30:00,
2017-03-24 05:36:00,51.8,47.1,29.95,South,171,6.0,10.0,84,0.00,,,0.00,Wunderground v.1.15,2017-03-24 10:36:00,
2017-03-24 05:41:00,51.9,47.5,29.95,SSE,157,5.0,6.0,85,0.00,,,0.00,Wunderground v.1.15,2017-03-24 10:41:00,
2017-03-24 05:47:00,51.9,47.5,29.96,South,171,5.0,8.0,85,0.00,,,0.00,Wunderground v.1.15,2017-03-24 10:47:00,
2017-03-24 05:53:00,52.0,47.6,29.96,SSW,197,6.0,6.0,85,0.00,,,0.00,Wunderground v.1.15,2017-03-24 10:53:00,
2017-03-24 05:58:00,52.1,47.7,29.97,South,173,6.0,8.0,85,0.00,,,0.00,Wunderground v.1.15,2017-03-24 10:58:00,
2017-03-24 06:04:00,52.2,47.8,29.98,South,177,6.0,6.0,85,0.00,,,0.00,Wunderground v.1.15,2017-03-24 11:04:00,
2017-03-24 06:09:00,52.4,48.0,30.00,SW,217,5.0,9.0,85,0.00,,,0.00,Wunderground v.1.15,2017-03-24 11:09:00,
2017-03-24 06:15:00,52.5,48.1,30.00,SSW,208,5.0,5.0,85,0.00,,,0.00,Wunderground v.1.15,2017-03-24 11:15:00,
2017-03-24 06:20:00,52.3,47.9,30.00,South,190,4.0,5.0,85,0.00,,,0.00,Wunderground v.1.15,2017-03-24 11:20:00,
2017-03-24 06:26:00,52.1,47.7,30.00,SSW,197,5.0,6.0,85,0.00,,,0.00,Wunderground v.1.15,2017-03-24 11:26:00,
2017-03-24 06:31:00,52.0,47.6,30.01,South,185,5.0,8.0,85,0.00,,,0.00,Wunderground v.1.15,2017-03-24 11:31:00,
2017-03-24 06:37:00,51.9,47.5,30.00,South,190,5.0,8.0,85,0.00,,,0.00,Wunderground v.1.15,2017-03-24 11:37:00,
2017-03-24 06:43:00,52.0,47.9,30.01,South,187,5.0,8.0,86,0.00,,,0.00,Wunderground v.1.15,2017-03-24 11:43:00,
2017-03-24 06:48:00,52.1,48.0,30.01,South,183,5.0,8.0,86,0.00,,,0.00,Wunderground v.1.15,2017-03-24 11:48:00,
2017-03-24 06:54:00,52.2,48.1,30.01,SSW,192,6.0,6.0,86,0.00,,,0.00,Wunderground v.1.15,2017-03-24 11:54:00,
2017-03-24 06:59:00,52.2,48.1,30.01,South,185,5.0,7.0,86,0.00,,,0.00,Wunderground v.1.15,2017-03-24 11:59:00,
2017-03-24 07:05:00,52.2,48.1,30.01,South,190,5.0,9.0,86,0.00,,,0.00,Wunderground v.1.15,2017-03-24 12:05:00,
2017-03-24 07:10:00,52.4,48.3,30.01,SSE,167,5.0,6.0,86,0.00,,,0.00,Wunderground v.1.15,2017-03-24 12:10:00,
2017-03-24 07:16:00,52.3,48.2,30.01,South,179,5.0,8.0,86,0.00,,,0.00,Wunderground v.1.15,2017-03-24 12:16:00,
2017-03-24 07:22:00,52.3,48.2,30.01,South,183,5.0,9.0,86,0.00,,,0.00,Wunderground v.1.15,2017-03-24 12:22:00,
2017-03-24 07:28:00,52.5,48.7,30.01,South,173,5.0,9.0,87,0.00,,,0.00,Wunderground v.1.15,2017-03-24 12:28:00,
2017-03-24 07:33:00,52.8,49.0,30.01,SSE,165,6.0,8.0,87,0.00,,,0.00,Wunderground v.1.15,2017-03-24 12:33:00,
2017-03-24 07:39:00,53.3,49.5,30.01,South,179,7.0,12.0,87,0.00,,,0.00,Wunderground v.1.15,2017-03-24 12:39:00,
2017-03-24 07:45:00,53.8,50.0,30.01,SSW,203,7.0,7.0,87,0.00,,,0.00,Wunderground v.1.15,2017-03-24 12:45:00,
2017-03-24 07:51:00,54.4,50.3,30.00,SSE,161,6.0,9.0,86,0.00,,,0.00,Wunderground v.1.15,2017-03-24 12:51:00,
2017-03-24 07:57:00,55.1,51.0,30.00,SE,146,7.0,9.0,86,0.00,,,0.00,Wunderground v.1.15,2017-03-24 12:57:00,
2017-03-24 08:03:00,55.9,51.8,30.00,SSE,167,8.0,10.0,86,0.00,,,0.00,Wunderground v.1.15,2017-03-24 13:03:00,
2017-03-24 08:08:00,56.6,52.1,30.00,SSE,152,7.0,10.0,85,0.00,,,0.00,Wunderground v.1.15,2017-03-24 13:08:00,
2017-03-24 08:14:00,57.1,52.3,30.00,SE,146,6.0,10.0,84,0.00,,,0.00,Wunderground v.1.15,2017-03-24 13:14:00,
2017-03-24 08:19:00,57.6,52.8,30.00,SSE,164,6.0,10.0,84,0.00,,,0.00,Wunderground v.1.15,2017-03-24 13:19:00,
2017-03-24 08:25:00,58.0,52.9,29.99,SSE,158,6.0,8.0,83,0.00,,,0.00,Wunderground v.1.15,2017-03-24 13:25:00,
2017-03-24 08:31:00,58.3,52.8,30.00,South,170,6.0,6.0,82,0.00,,,0.00,Wunderground v.1.15,2017-03-24 13:31:00,
2017-03-24 08:36:00,58.8,53.3,30.00,SSE,163,7.0,10.0,82,0.00,,,0.00,Wunderground v.1.15,2017-03-24 13:36:00,
2017-03-24 08:42:00,59.4,53.9,30.00,South,169,8.0,15.0,82,0.00,,,0.00,Wunderground v.1.15,2017-03-24 13:42:00,
2017-03-24 08:47:00,60.0,54.2,30.00,South,173,8.0,15.0,81,0.00,,,0.00,Wunderground v.1.15,2017-03-24 13:47:00,
2017-03-24 08:53:00,60.5,54.6,29.99,SSE,150,8.0,8.0,81,0.00,,,0.00,Wunderground v.1.15,2017-03-24 13:53:00,
2017-03-24 08:58:00,61.2,55.0,30.00,SE,141,7.0,11.0,80,0.00,,,0.00,Wunderground v.1.15,2017-03-24 13:58:00,
2017-03-24 09:04:00,61.6,55.4,30.00,SSE,160,7.0,13.0,80,0.00,,,0.00,Wunderground v.1.15,2017-03-24 14:04:00,
2017-03-24 09:10:00,62.2,56.0,29.99,South,187,7.0,13.0,80,0.00,,,0.00,Wunderground v.1.15,2017-03-24 14:10:00,
2017-03-24 09:16:00,63.1,56.1,30.00,SSW,199,7.0,11.0,78,0.00,,,0.00,Wunderground v.1.15,2017-03-24 14:16:00,
2017-03-24 09:21:00,63.8,56.4,30.00,South,171,9.0,12.0,77,0.00,,,0.00,Wunderground v.1.15,2017-03-24 14:21:00,
2017-03-24 09:27:00,64.4,56.7,30.00,SSE,154,9.0,12.0,76,0.00,,,0.00,Wunderground v.1.15,2017-03-24 14:27:00,
2017-03-24 09:32:00,64.8,56.7,30.00,SSE,159,9.0,9.0,75,0.00,,,0.00,Wunderground v.1.15,2017-03-24 14:32:00,
2017-03-24 09:38:00,65.3,56.8,29.99,South,185,9.0,17.0,74,0.00,,,0.00,Wunderground v.1.15,2017-03-24 14:38:00,
2017-03-24 09:44:00,65.7,57.2,30.00,SSE,154,11.0,11.0,74,0.00,,,0.00,Wunderground v.1.15,2017-03-24 14:44:00,
2017-03-24 09:50:00,66.1,57.2,30.00,South,175,9.0,13.0,73,0.00,,,0.00,Wunderground v.1.15,2017-03-24 14:50:00,
2017-03-24 09:56:00,66.8,57.9,30.00,South,176,8.0,12.0,73,0.00,,,0.00,Wunderground v.1.15,2017-03-24 14:56:00,
2017-03-24 10:01:00,67.2,57.5,30.00,SSE,157,8.0,16.0,71,0.00,,,0.00,Wunderground v.1.15,2017-03-24 15:01:00,
2017-03-24 10:07:00,67.7,58.0,30.00,South,185,10.0,16.0,71,0.00,,,0.00,Wunderground v.1.15,2017-03-24 15:07:00,
2017-03-24 10:13:00,68.3,58.1,29.99,South,174,9.0,10.0,70,0.00,,,0.00,Wunderground v.1.15,2017-03-24 15:13:00,
2017-03-24 10:19:00,68.7,58.9,29.99,SSE,155,9.0,10.0,71,0.00,,,0.00,Wunderground v.1.15,2017-03-24 15:19:00,
2017-03-24 10:25:00,69.2,58.6,29.99,South,184,10.0,13.0,69,0.00,,,0.00,Wunderground v.1.15,2017-03-24 15:25:00,
2017-03-24 10:30:00,69.6,59.0,29.99,SW,214,11.0,14.0,69,0.00,,,0.00,Wunderground v.1.15,2017-03-24 15:30:00,
2017-03-24 10:35:00,70.1,59.0,29.99,SSW,207,10.0,20.0,68,0.00,,,0.00,Wunderground v.1.15,2017-03-24 15:35:00,
2017-03-24 10:41:00,70.4,59.3,29.99,SSW,192,10.0,12.0,68,0.00,,,0.00,Wunderground v.1.15,2017-03-24 15:41:00,
2017-03-24 10:46:00,70.7,59.2,29.99,South,179,11.0,13.0,67,0.00,,,0.00,Wunderground v.1.15,2017-03-24 15:46:00,
2017-03-24 10:52:00,70.8,59.7,29.99,South,173,10.0,11.0,68,0.00,,,0.00,Wunderground v.1.15,2017-03-24 15:52:00,
2017-03-24 10:57:00,71.2,59.7,29.99,SSE,167,10.0,16.0,67,0.00,,,0.00,Wunderground v.1.15,2017-03-24 15:57:00,
2017-03-24 11:03:00,71.3,59.8,29.99,South,181,10.0,13.0,67,0.00,,,0.00,Wunderground v.1.15,2017-03-24 16:03:00,
2017-03-24 11:08:00,71.3,58.9,29.99,SSE,150,12.0,19.0,65,0.00,,,0.00,Wunderground v.1.15,2017-03-24 16:08:00,
2017-03-24 11:14:00,71.5,59.5,29.98,SSE,156,12.0,13.0,66,0.00,,,0.00,Wunderground v.1.15,2017-03-24 16:14:00,
2017-03-24 11:20:00,71.5,59.1,29.98,SSE,154,12.0,19.0,65,0.00,,,0.00,Wunderground v.1.15,2017-03-24 16:20:00,
2017-03-24 11:25:00,71.4,59.4,29.98,South,171,13.0,14.0,66,0.00,,,0.00,Wunderground v.1.15,2017-03-24 16:25:00,
2017-03-24 11:31:00,71.4,59.4,29.98,SSE,168,13.0,18.0,66,0.00,,,0.00,Wunderground v.1.15,2017-03-24 16:31:00,
2017-03-24 11:36:00,71.5,59.5,29.98,SSW,200,13.0,18.0,66,0.00,,,0.00,Wunderground v.1.15,2017-03-24 16:36:00,
2017-03-24 11:42:00,71.6,59.6,29.98,SSW,192,13.0,15.0,66,0.00,,,0.00,Wunderground v.1.15,2017-03-24 16:42:00,
2017-03-24 11:48:00,72.1,60.1,29.98,SW,219,11.0,15.0,66,0.00,,,0.00,Wunderground v.1.15,2017-03-24 16:48:00,
2017-03-24 11:54:00,72.4,60.0,29.98,SE,127,11.0,16.0,65,0.00,,,0.00,Wunderground v.1.15,2017-03-24 16:54:00,
2017-03-24 12:00:00,72.9,60.4,29.97,SSE,157,12.0,16.0,65,0.00,,,0.00,Wunderground v.1.15,2017-03-24 17:00:00,